Es liegt ein Kommunikationsproblem . Gehen Sie direkt zur Website Meteoalarm : www.meteoalarm.eu und ├╝berpr├╝fen Sie die Wetterwarnungen..

Webcam Vorhersage DWD Regenradar Wetterlage NRW Blitze Wind GFS-Modell
webcam


Kleve -D├╝ffelward more information Kleve -D├╝ffelward


Goch more information Goch


Thunder radar more information blitzortung!


Weitere Templates dieser Seite und andere Webseiten:

Meteotemplate

Awekas - Template

weather34 - Template

Wetter aus Willich

Hubert Reyers' Wetter


te
World Weather Websites
 

METAR-Meldungen aus der Umgebung

   
EHDL - Nijmegen
Aktualisierung: 30-03-2023 15:25
Bew├Âlkt  
Bew├Âlkt  
   Wind: WSW 33.3 km/h
Wind: WSW 33.3 km/h
Temperatur: 14°C
Taupunkt: 8°C
Luftfeuchte: 67%
Luftdruck: 1006 hPa
Bew├Âlkt: Bew├Âlkt
Sichtbarkeit: More than 10 km
Bew├Âlkung: Teilweise bew├Âlkt 2600 ft,
Stark bew├Âlkt 3100 ft,
Bew├Âlkt 3500 ft
EHDL 301325Z AUTO 25018KT 190V320 9999 SCT026 BKN031 OVC035 14/08 Q1006 BLU
EHDL - Arnhem
Aktualisierung: 30-03-2023 15:25
Bew├Âlkt  
Bew├Âlkt  
   Wind: WSW 33.3 km/h
Wind: WSW 33.3 km/h
Temperatur: 14°C
Taupunkt: 8°C
Luftfeuchte: 67%
Luftdruck: 1006 hPa
Bew├Âlkt: Bew├Âlkt
Sichtbarkeit: More than 10 km
Bew├Âlkung: Teilweise bew├Âlkt 2600 ft,
Stark bew├Âlkt 3100 ft,
Bew├Âlkt 3500 ft
EHDL 301325Z AUTO 25018KT 190V320 9999 SCT026 BKN031 OVC035 14/08 Q1006 BLU
EHAM - Amsterdam
Aktualisierung: 30-03-2023 15:25
leicht bew├Âlkt  
leicht bew├Âlkt  
   Wind: SW 42.6 km/h
Wind: SW 42.6 km/h
Temperatur: 14°C
Taupunkt: 10°C
Luftfeuchte: 77%
Luftdruck: 1005 hPa
Bew├Âlkt: leicht bew├Âlkt
Sichtbarkeit: More than 10 km
Bew├Âlkung: leicht bew├Âlkt 1700 ft
EHAM 301325Z 23023KT 9999 FEW017 14/10 Q1005 NOSIG
EHDL - Ede
Aktualisierung: 30-03-2023 15:25
Bew├Âlkt  
Bew├Âlkt  
   Wind: WSW 33.3 km/h
Wind: WSW 33.3 km/h
Temperatur: 14°C
Taupunkt: 8°C
Luftfeuchte: 67%
Luftdruck: 1006 hPa
Bew├Âlkt: Bew├Âlkt
Sichtbarkeit: More than 10 km
Bew├Âlkung: Teilweise bew├Âlkt 2600 ft,
Stark bew├Âlkt 3100 ft,
Bew├Âlkt 3500 ft
EHDL 301325Z AUTO 25018KT 190V320 9999 SCT026 BKN031 OVC035 14/08 Q1006 BLU
EHDL - Emmen
Aktualisierung: 30-03-2023 15:25
Bew├Âlkt  
Bew├Âlkt  
   Wind: WSW 33.3 km/h
Wind: WSW 33.3 km/h
Temperatur: 14°C
Taupunkt: 8°C
Luftfeuchte: 67%
Luftdruck: 1006 hPa
Bew├Âlkt: Bew├Âlkt
Sichtbarkeit: More than 10 km
Bew├Âlkung: Teilweise bew├Âlkt 2600 ft,
Stark bew├Âlkt 3100 ft,
Bew├Âlkt 3500 ft
EHDL 301325Z AUTO 25018KT 190V320 9999 SCT026 BKN031 OVC035 14/08 Q1006 BLU
EHAM - Den Haag
Aktualisierung: 30-03-2023 15:25
leicht bew├Âlkt  
leicht bew├Âlkt  
   Wind: SW 42.6 km/h
Wind: SW 42.6 km/h
Temperatur: 14°C
Taupunkt: 10°C
Luftfeuchte: 77%
Luftdruck: 1005 hPa
Bew├Âlkt: leicht bew├Âlkt
Sichtbarkeit: More than 10 km
Bew├Âlkung: leicht bew├Âlkt 1700 ft
EHAM 301325Z 23023KT 9999 FEW017 14/10 Q1005 NOSIG
EHAM - Apeldoorn
Aktualisierung: 30-03-2023 15:25
leicht bew├Âlkt  
leicht bew├Âlkt  
   Wind: SW 42.6 km/h
Wind: SW 42.6 km/h
Temperatur: 14°C
Taupunkt: 10°C
Luftfeuchte: 77%
Luftdruck: 1005 hPa
Bew├Âlkt: leicht bew├Âlkt
Sichtbarkeit: More than 10 km
Bew├Âlkung: leicht bew├Âlkt 1700 ft
EHAM 301325Z 23023KT 9999 FEW017 14/10 Q1005 NOSIG
EHAM - Leeuwarden
Aktualisierung: 30-03-2023 15:25
leicht bew├Âlkt  
leicht bew├Âlkt  
   Wind: SW 42.6 km/h
Wind: SW 42.6 km/h
Temperatur: 14°C
Taupunkt: 10°C
Luftfeuchte: 77%
Luftdruck: 1005 hPa
Bew├Âlkt: leicht bew├Âlkt
Sichtbarkeit: More than 10 km
Bew├Âlkung: leicht bew├Âlkt 1700 ft
EHAM 301325Z 23023KT 9999 FEW017 14/10 Q1005 NOSIG
TNCC - Willemstad
Aktualisierung: 30-03-2023 15:00
leicht bew├Âlkt  
leicht bew├Âlkt  
   Wind: Osten 24.1 km/h
Wind: Osten 24.1 km/h
Temperatur: 28°C
Hitzeindex: 31°C
Taupunkt: 22°C
Luftfeuchte: 70%
Luftdruck: 1015 hPa
Bew├Âlkt: leicht bew├Âlkt
Sichtbarkeit: More than 10 km
Bew├Âlkung: leicht bew├Âlkt 2200 ft
TNCC 301300Z 09013KT 9999 FEW022 28/22 Q1015 NOSIG=
EHEH - Eindhoven
Aktualisierung: 30-03-2023 15:25
Stark bew├Âlkt  
Stark bew├Âlkt  
   Wind: WSW 31.5 km/h
Wind: WSW 31.5 km/h
Temperatur: 16°C
Taupunkt: 8°C
Luftfeuchte: 59%
Luftdruck: 1007 hPa
Bew├Âlkt: Stark bew├Âlkt
Sichtbarkeit: More than 10 km
Bew├Âlkung: leicht bew├Âlkt 3700 ft,
Teilweise bew├Âlkt 4400 ft,
Stark bew├Âlkt 5300 ft
EHEH 301325Z AUTO 24017KT 200V270 9999 FEW037 SCT044 BKN053 16/08 Q1007 BLU TEMPO 24020G34KT 4500 SHRA FEW015 SCT020CB BKN035
EHAM - Middelburg
Aktualisierung: 30-03-2023 15:25
leicht bew├Âlkt  
leicht bew├Âlkt  
   Wind: SW 42.6 km/h
Wind: SW 42.6 km/h
Temperatur: 14°C
Taupunkt: 10°C
Luftfeuchte: 77%
Luftdruck: 1005 hPa
Bew├Âlkt: leicht bew├Âlkt
Sichtbarkeit: More than 10 km
Bew├Âlkung: leicht bew├Âlkt 1700 ft
EHAM 301325Z 23023KT 9999 FEW017 14/10 Q1005 NOSIG
EHAM - Delfzijl
Aktualisierung: 30-03-2023 15:25
leicht bew├Âlkt  
leicht bew├Âlkt  
   Wind: SW 42.6 km/h
Wind: SW 42.6 km/h
Temperatur: 14°C
Taupunkt: 10°C
Luftfeuchte: 77%
Luftdruck: 1005 hPa
Bew├Âlkt: leicht bew├Âlkt
Sichtbarkeit: More than 10 km
Bew├Âlkung: leicht bew├Âlkt 1700 ft
EHAM 301325Z 23023KT 9999 FEW017 14/10 Q1005 NOSIG

Script entwickelt von  Saratoga-weather.org Angepasst f├╝r das Template von  Weerstation Leuven

Sie finden Wetter-Infos dieser Station auch auf:

UK Metoffice

European Weather Network

WeatherCloud

Weather Underground

AWEKAS

Neuwetter

Wettersektor

Von uns verwendete Ausr├╝stung:

Wetterstation
Davis VP2

Wetterprogramm
Meteobridge

WetterComputer
Computer

Anbieter
My provider

Davis VP2

Meteobridge

Computer

My provider